Probability
0 0 0 0 0 0 0 0 0 0 0 0 0 0 0 0 0 0 0 0 0 0 0 0 0 0 0 0 0 1 2 2 1 0 1 2 4 5 4 3 1 0 0
0 0 0 0 0 0 0 0 0 0 0 0 0 0 0 0 0 0 0 0 0 0 0 0 0 0 0 0 0 0 1 2 2 2 2 4 5 6 6 6 4 1 0
0 0 0 0 0 0 0 0 0 0 0 0 0 0 0 0 0 0 0 0 0 0 0 0 0 0 0 0 0 0 0 1 2 4 7 8 9 9 10 11 9 4 1
0 0 0 0 0 0 0 0 0 0 0 0 0 0 0 0 0 0 0 0 0 0 0 0 0 0 0 0 0 0 0 1 4 8 11 14 14 14 14 15 13 8 3
0 0 0 0 0 0 0 0 0 0 0 0 0 0 0 0 0 0 0 0 0 0 0 0 0 0 0 0 0 0 0 2 6 10 14 18 19 19 19 18 16 11 8
0 0 0 0 0 0 0 0 0 0 0 0 0 0 0 0 0 0 0 0 0 0 0 0 0 0 0 0 0 0 1 3 6 10 15 20 24 24 23 23 20 15 12
0 0 0 0 0 0 0 0 0 0 0 0 0 0 0 0 0 0 0 0 0 0 0 0 0 0 0 0 0 0 1 3 6 9 15 23 29 30 28 26 23 17 13
0 0 0 0 0 0 0 0 0 0 0 0 0 0 0 0 0 0 0 0 0 0 0 0 0 0 0 0 0 0 1 3 5 9 17 28 35 38 35 30 25 19 15
0 0 0 0 0 0 0 0 0 0 0 0 0 0 0 0 0 0 0 0 0 0 0 0 0 0 0 0 0 0 0 2 3 7 17 30 40 47 47 39 28 22 19
0 0 0 0 0 0 0 0 0 0 0 0 0 0 0 0 0 0 0 0 0 0 0 0 0 0 0 0 0 0 0 0 1 4 12 26 40 53 58 50 38 29 25
0 0 0 0 0 0 0 0 0 0 0 0 0 0 0 0 0 0 0 0 0 0 0 0 0 0 0 0 0 0 0 0 0 2 6 15 28 43 53 55 48 38 32
0 0 0 0 0 0 0 0 0 0 0 0 0 0 0 0 0 0 0 0 0 0 0 0 0 0 0 0 0 0 0 0 0 1 2 5 11 21 34 42 42 38 34
0 0 0 0 0 0 0 0 0 0 0 0 0 0 0 0 0 0 0 0 0 0 0 0 0 0 0 0 0 0 0 0 0 0 0 1 2 8 16 21 24 26 25
0 0 0 0 0 0 0 0 0 0 0 0 0 0 0 0 0 0 0 0 0 0 0 0 0 0 0 0 0 0 0 0 0 0 0 0 1 3 7 8 9 12 13
0 0 0 0 0 0 0 0 0 0 0 0 0 0 0 0 0 0 0 0 0 0 0 0 0 0 0 0 0 0 0 0 0 0 0 0 0 1 2 2 3 5 7
0 0 0 0 0 0 0 0 0 0 0 0 0 0 0 0 0 0 0 0 0 0 0 0 0 0 0 0 0 0 0 0 0 0 0 0 0 0 0 0 1 2 4
0 0 0 0 0 0 0 0 0 0 0 0 0 0 0 0 0 0 0 0 0 0 0 0 0 0 0 0 0 0 0 0 0 0 0 0 0 0 0 0 0 1 1
0 0 0 0 0 0 0 0 0 0 0 0 0 0 0 0 0 0 0 0 0 0 0 0 0 0 0 0 0 0 0 0 0 0 0 0 0 0 0 0 0 0 0
0 0 0 0 0 0 0 0 0 0 0 0 0 0 0 0 0 0 0 0 0 0 0 0 0 0 0 0 0 0 0 0 0 0 0 0 0 0 0 0 0 0 0
0 0 0 0 0 0 0 0 0 0 0 0 0 0 0 0 0 0 0 0 0 0 0 0 0 0 0 0 0 0 0 0 0 0 0 0 0 0 0 0 0 0 0
0 0 0 0 0 0 0 0 0 0 0 0 0 0 0 0 0 0 0 0 0 0 0 0 0 0 0 0 0 0 0 0 0 0 0 0 0 0 0 0 0 0 0
0 0 0 0 0 0 0 0 0 0 0 0 0 0 0 0 0 0 0 0 0 0 0 0 0 0 0 0 0 0 0 0 0 0 0 0 0 0 0 0 0 0 0
0 0 0 0 0 0 0 0 0 0 0 0 0 0 0 0 0 0 0 0 0 0 0 0 0 0 0 0 0 0 0 0 0 0 0 0 0 0 0 0 0 0 0
0 0 0 0 0 0 0 0 0 0 0 0 0 0 0 0 0 0 0 0 0 0 0 0 0 0 0 0 0 0 0 0 0 0 0 0 0 0 0 0 0 0 0
0 0 0 0 0 0 0 0 0 0 0 0 0 0 0 0 0 0 0 0 0 0 0 0 0 0 0 0 0 0 0 0 0 0 0 0 0 0 0 0 0 0 0
0 0 0 0 0 0 0 0 0 0 0 0 0 0 0 0 0 0 0 0 0 0 0 0 0 0 0 0 0 0 0 0 0 0 0 0 0 0 0 0 0 0 0
Wind_Speed
3 2 1 0 0 1 1 2 2 3 4 5 5 6 6 7 7 6 6 17 21 22 23 25 26 27 29 29 30 31 31 32 32 32 33 33 34 34 33 33 32 31 30
4 3 2 1 1 1 1 1 3 3 3 4 5 6 7 7 7 7 6 10 18 21 22 24 26 28 29 30 31 31 32 33 33 33 34 34 35 35 34 34 33 32 31
5 4 3 3 3 2 2 2 3 3 4 4 6 7 7 7 7 8 8 6 8 15 21 24 26 28 29 30 31 32 33 33 34 34 34 34 35 35 35 35 34 33 32
6 5 4 4 3 3 2 3 3 3 4 4 5 6 6 6 8 8 7 7 6 7 13 22 25 27 29 31 32 33 33 34 34 34 35 35 35 35 36 36 35 34 33
7 5 4 4 4 3 3 4 3 3 4 5 6 6 6 6 7 9 7 7 7 7 6 15 23 26 29 30 32 33 34 34 35 35 35 35 35 36 36 36 36 35 34
7 6 5 5 4 3 4 4 4 4 4 5 7 7 7 8 7 7 7 6 6 8 8 9 10 15 26 29 31 32 34 34 35 36 35 35 35 36 36 36 36 35 34
8 7 5 5 5 5 5 5 3 4 4 3 4 5 7 7 8 6 5 5 7 8 8 9 7 8 11 24 29 32 33 35 35 35 35 35 35 35 35 35 36 35 35
9 8 7 6 6 5 5 5 4 3 3 2 2 4 5 4 3 6 6 6 7 6 8 11 9 10 10 8 18 31 32 34 36 35 34 34 35 34 35 35 35 35 34
10 8 8 7 6 6 5 6 6 5 4 3 3 2 3 5 7 5 6 7 6 6 7 7 11 10 12 11 12 21 30 33 35 34 34 33 33 33 33 33 33 33 34
9 9 8 8 7 6 6 7 6 5 5 4 3 5 6 5 5 8 5 4 6 8 8 10 10 11 12 10 15 25 30 32 34 34 33 32 32 31 31 30 30 31 31
9 9 9 8 8 7 7 7 6 6 5 5 5 4 5 6 7 8 13 11 7 6 7 8 9 9 11 11 10 19 30 32 33 34 32 31 30 30 29 27 26 26 28
7 9 9 8 8 7 8 8 7 7 7 7 6 5 5 5 6 7 10 14 15 10 7 7 8 9 9 10 14 27 30 31 32 33 32 31 30 29 28 26 24 23 24
8 11 10 9 8 8 8 8 7 8 8 8 8 7 7 8 8 8 11 14 16 14 8 7 8 8 10 8 10 26 27 30 31 32 32 31 30 28 27 27 24 21 18
10 10 11 10 9 9 9 8 7 8 7 8 10 9 8 8 8 9 10 12 16 16 12 8 6 7 8 8 14 26 17 28 31 32 32 31 30 28 27 26 25 22 18
8 10 10 10 9 9 9 8 7 8 7 8 9 9 9 9 8 9 10 10 12 17 18 10 5 6 7 8 16 13 12 23 31 31 31 30 29 28 26 25 24 22 19
10 10 11 10 10 9 9 8 8 8 8 9 8 9 10 9 9 9 10 11 11 14 18 11 9 8 10 12 19 14 12 28 29 30 30 29 28 27 26 24 24 23 20
12 12 11 11 10 10 9 8 9 8 9 10 9 10 12 11 10 10 10 11 12 12 17 15 11 10 11 12 13 11 12 12 14 26 29 29 28 27 26 24 23 23 21
13 12 11 11 10 10 9 9 10 10 10 11 11 11 12 11 12 11 11 12 12 12 15 19 14 11 12 12 12 12 12 12 11 23 28 28 27 26 25 24 23 22 21
13 12 12 12 11 10 9 10 10 10 10 11 11 12 12 12 13 11 12 13 12 12 13 15 16 12 10 9 11 11 12 10 13 17 23 24 24 24 24 23 22 22 21
14 13 13 12 11 10 10 9 9 10 10 11 12 12 12 12 13 14 13 13 13 13 12 13 13 12 10 9 8 9 10 9 10 12 16 17 20 22 22 22 22 21 20
14 12 12 11 10 9 9 9 9 11 11 12 12 12 12 15 19 17 13 11 10 10 11 10 11 11 10 8 8 8 11 10 10 9 9 9 10 9 11 15 19 20 21
12 12 12 12 11 10 15 19 14 11 11 11 11 9 10 13 17 22 25 24 21 14 11 10 10 11 11 10 9 10 10 11 10 4 7 10 8 10 9 8 16 21 21
13 13 12 12 12 13 18 19 20 11 9 8 8 8 8 10 15 9 17 23 20 22 21 13 12 12 13 11 12 13 12 12 12 8 9 12 8 10 9 11 20 20 21
13 13 13 13 11 13 18 19 19 12 7 7 7 8 9 9 11 14 13 12 9 10 14 10 10 12 13 12 12 12 12 12 11 9 8 10 8 8 10 9 17 21 21
12 12 11 12 12 12 17 18 17 6 6 7 8 8 9 9 17 23 14 9 8 9 15 19 20 19 22 22 18 9 8 9 10 7 5 6 6 8 8 8 11 18 20
12 11 11 11 12 10 15 17 17 5 6 6 6 7 13 14 18 21 11 7 9 10 8 8 11 15 13 14 18 9 7 8 8 6 3 4 4 5 6 4 4 5 9
Wind_Direction
167 169 170 168 349 1 359 340 333 324 315 306 297 296 292 289 287 283 292 308 315 317 317 317 317 316 315 314 312 310 307 304 301 297 293 289 286 283 282 279 277 276 275
172 175 184 202 232 242 253 271 279 284 283 282 281 279 278 278 277 278 279 296 308 314 316 316 315 314 312 311 310 309 306 303 299 296 292 287 283 280 278 276 274 272 271
179 178 186 208 224 228 245 257 269 262 263 266 270 274 272 266 271 275 280 277 288 306 312 315 314 311 310 310 309 307 304 301 297 294 291 285 280 277 275 273 271 269 267
184 181 190 212 217 214 226 243 249 254 259 264 267 269 269 267 270 273 273 275 277 287 302 310 312 312 312 309 307 306 303 299 297 293 289 285 279 275 271 270 268 266 264
188 184 196 211 210 212 223 245 242 230 254 266 268 263 256 258 266 274 273 273 274 280 283 303 309 312 310 306 305 305 303 299 296 292 287 284 279 273 269 266 264 263 260
191 187 198 211 207 213 227 230 247 247 243 258 279 280 266 261 259 259 264 272 276 282 287 289 295 303 306 306 305 304 302 300 296 291 286 282 279 273 267 264 262 260 257
192 189 200 202 203 211 223 224 234 258 259 248 272 281 269 255 247 248 250 260 272 276 278 283 285 288 295 300 303 303 301 299 296 292 286 282 279 273 266 262 260 257 254
193 196 197 202 204 211 223 225 214 236 257 253 264 306 312 295 247 249 246 259 267 269 278 288 287 288 288 288 291 298 300 299 297 293 288 283 280 275 266 262 259 256 251
194 196 194 197 203 204 217 222 212 217 243 249 204 220 283 293 306 259 238 255 259 266 272 280 283 286 292 291 290 294 295 298 298 295 290 286 282 277 269 264 258 254 249
194 196 196 198 202 205 215 223 219 211 220 246 233 217 219 236 286 301 282 252 252 268 269 283 288 286 286 286 287 294 297 297 298 298 294 289 287 284 275 268 260 255 249
197 198 198 198 203 208 213 219 222 218 216 229 230 227 237 242 233 263 291 297 282 255 259 267 275 279 283 283 284 288 295 299 302 303 303 300 295 290 286 281 272 262 252
200 202 202 201 205 208 214 219 221 223 225 230 236 231 231 238 245 248 274 291 295 288 264 261 269 272 276 279 285 295 300 301 303 306 306 304 301 298 295 293 286 276 259
201 205 202 202 205 212 216 217 220 226 226 230 235 238 239 242 248 255 269 282 288 290 276 258 255 262 274 276 284 294 297 302 303 304 305 304 302 300 298 298 295 290 281
201 194 197 202 206 209 217 217 223 228 228 232 242 241 245 250 248 250 259 276 288 291 284 269 249 250 264 272 279 293 296 299 301 301 302 302 301 299 297 296 296 293 292
192 192 194 200 207 211 216 217 228 231 231 236 243 246 248 254 252 252 254 256 270 288 292 290 274 250 263 271 280 285 285 293 297 299 300 299 298 296 295 295 295 290 290
191 186 194 200 207 212 215 218 228 232 235 242 243 247 251 254 255 256 256 257 255 264 279 285 280 272 273 280 285 288 288 293 297 298 297 297 295 293 291 290 290 289 287
191 193 195 200 207 213 214 219 230 231 238 248 249 250 255 256 259 261 262 261 260 261 272 281 278 276 271 273 280 280 280 281 285 291 295 294 292 290 287 285 283 283 283
193 194 194 201 208 213 214 220 232 237 238 247 252 254 259 261 262 264 265 266 266 262 267 278 282 278 273 272 274 275 283 284 283 290 292 292 290 287 284 281 278 276 277
192 192 194 202 208 212 216 222 229 237 240 246 251 254 258 261 266 266 266 268 269 267 263 270 278 279 277 273 275 278 278 279 284 287 292 292 291 288 285 280 275 272 272
191 192 196 202 206 211 217 223 227 237 244 248 250 252 254 256 263 267 268 267 268 269 267 268 274 279 278 273 271 283 289 284 286 290 288 289 290 291 288 281 274 271 271
194 192 193 200 205 210 217 220 228 237 242 249 251 249 251 260 268 277 280 278 275 274 275 274 277 281 283 286 286 287 289 290 284 278 283 286 290 287 287 285 282 272 265
191 187 194 198 205 214 230 237 237 233 237 244 251 252 256 270 280 286 292 295 292 288 289 285 287 287 289 288 287 285 286 288 289 268 278 286 282 280 277 267 267 267 264
189 190 195 198 209 221 233 244 251 250 239 239 243 251 264 268 288 286 288 290 290 290 293 293 289 286 287 284 281 279 274 273 274 277 283 283 278 276 274 271 269 262 258
192 193 196 200 208 223 232 243 251 254 242 238 239 244 255 265 273 281 274 274 266 270 279 280 267 270 273 274 267 270 273 274 271 267 263 275 277 275 276 267 266 259 253
196 195 194 197 206 222 231 240 249 240 243 245 244 247 255 259 279 291 293 286 279 277 291 296 297 299 301 305 304 298 290 286 286 283 258 264 278 284 274 261 257 253 248
197 192 196 198 204 213 226 235 244 234 243 250 249 250 268 278 289 297 297 290 292 291 288 293 298 299 296 294 299 294 285 281 282 283 254 257 278 298 297 275 254 252 245